Regional Weather Roundup
Issued by NWS

Home | Current Version | Previous Version | Graphics & Text | Print | Product List | Glossary On
Versions: 1 2 3 4 5 6 7 8 9 10 11 12 13 14 15 16 17 18 19 20 21 22 23 24 25 26 27 28 29 30 31 32 33 34 35 36 37 38 39 40 41 42 43 44 45 46 47 48 49 50
000
ASUS45 KCYS 171310
RWRWY

WYOMING REGIONAL WEATHER ROUNDUP
NATIONAL WEATHER SERVICE CHEYENNE WY
700 AM MDT TUE OCT 17 2017

NOTE:  "FAIR" INDICATES FEW OR NO CLOUDS BELOW 12,000 FEET
WITH NO SIGNIFICANT WEATHER AND/OR OBSTRUCTIONS TO VISIBILITY.

WYZ001-171400-
YELLOWSTONE NATIONAL PARK

CITY           SKY/WX    TMP DP  RH WIND       PRES   REMARKS
LK YELLOWSTONE   N/A     21  32 100 NW3       30.36F
W YELLOWSTONE  NOT AVBL

$$
WYZ002>013-054>058-071-098>099-171400-
NORTHERN WYOMING

CITY           SKY/WX    TMP DP  RH WIND       PRES   REMARKS
JACKSON        NOT AVBL
CODY           FAIR      54  16  22 VRB6      30.18S
GREYBULL       FAIR      31  25  78 CALM      30.15F
WORLAND        FAIR      30  27  88 CALM      30.15F
SHERIDAN       FAIR      34  23  64 CALM      30.05F
BUFFALO        FAIR      48  11  22 SW8       30.11F
GILLETTE       FAIR      48  23  37 S5        30.08F
HULETT         FAIR      41  23  48 CALM      30.09S
NEWCASTLE      FAIR      34  27  75 N3        30.13F

$$
WYZ014>020-022>026-101>103-171400-
CENTRAL WYOMING

CITY           SKY/WX    TMP DP  RH WIND       PRES   REMARKS
BIG PINEY      FAIR      19  12  74 CALM      30.38S
PINEDALE       FAIR      18  14  86 W5        30.38F WCI  11
DUBOIS         FAIR      32  16  51 NW12      30.29S WCI  23
LANDER         NOT AVBL
RIVERTON       FAIR      34  23  64 W8        30.22S WCI  27
CASPER         FAIR      41  16  36 SW16      30.19S
DOUGLAS        FAIR      26  20  77 NW3       30.17F

$$
WYZ021-027>030-104>119-171400-
SOUTHERN WYOMING

CITY           SKY/WX    TMP DP  RH WIND       PRES   REMARKS
EVANSTON       FAIR      38   6  26 S8        30.38F WCI  32
KEMMERER       FAIR      32  12  43 NW8       30.38F WCI  25
FORT BRIDGER   FAIR      40   5  22 SW10      30.40F WCI  34
ROCK SPRINGS   FAIR      38   3  23 W12       30.36S WCI  30
DIXON          FAIR      24  13  63 CALM      30.41F
RAWLINS        FAIR      42   6  22 SW9G18    30.32S
SARATOGA       FAIR      34  10  37 S7        30.35F WCI  28
LARAMIE        FAIR      36   8  31 S9        30.31F WCI  29
CHEYENNE       FAIR      45  12  26 SW13      30.26S
TORRINGTON     FAIR      26  22  84 CALM      30.16S
PINE BLUFFS    FAIR      30  19  64 MISG      30.23F

$$



USA.gov is the U.S. government's official web portal to all federal, state and local government web resources and services.